Regional Weather Roundup
Issued by NWS Kansas City/Pleasant Hill, MO

Home | Current Version | Previous Version | Graphics & Text | Print | Product List | Glossary Off
Versions: 1 2 3 4 5 6 7 8 9 10 11 12 13 14 15 16 17 18 19 20 21 22 23 24 25 26 27 28 29 30 31 32 33 34 35 36 37 38 39 40 41 42 43 44 45 46 47 48 49 50

000
ASUS43 KEAX 030910
RWREAX

WEATHER ROUNDUP FOR EASTERN KANSAS AND NORTHWEST MISSOURI
NATIONAL WEATHER SERVICE KANSAS CITY/PLEASANT HILL MO
300 AM CST TUE MAR 03 2015

KSZ040-057-103>105-MOZ028-029-037-043-031000-
...KANSAS CITY METROPOLITAN AREA...

CITY           SKY/WX    TMP DP  RH WIND       PRES   REMARKS
K.C. INTL      DRIZZLE   33  32  96 S15       29.84F WCI  23
K.C. DOWNTOWN  CLOUDY    35  32  88 S12       29.88F WCI  27
LEES SUMMIT    CLOUDY    33  31  92 S12       29.88F FOG     WCI  24
OLATHE - IXD   CLOUDY    33  32  96 S15       29.86F FOG     WCI  23
OLATHE - OJC   CLOUDY    33  32  96 S14       29.84F FOG     WCI  23
LAWRENCE       CLOUDY    34  32  92 S10       29.84F FOG     WCI  26

$$

MOZ001>008-011>017-020>025-030>033-038>040-044>046-053-054-031000-
...NORTHERN AND CENTRAL MISSOURI...

CITY           SKY/WX    TMP DP  RH WIND       PRES   REMARKS
ST. JOSEPH     CLOUDY    34  30  85 S13       29.84F WCI  25
MOSBY            N/A     32  32 100 SE10      29.88F FOG     WCI  24
WARRENSBURG    CLOUDY    32  32 100 SE9       29.90F FOG     WCI  24
WHITEMAN AFB   CLOUDY    34  30  85 S7        29.91F WCI  28
CLINTON        CLOUDY    36  30  80 S10       29.93F WCI  28
SEDALIA        CLOUDY    36  27  69 S9        29.94F WCI  29
WARSAW         NOT AVBL
MARSHALL       CLOUDY    36  28  75 SE8       29.98F WCI  29
CHILLICOTHE      N/A     33  26  75 S12       29.92F WCI  24
MOBERLY        CLOUDY    30  23  74 SE8       29.97F HAZE    WCI  23
KIRKSVILLE     CLOUDY    29  26  89 SE15      29.92F WCI  18

$$

MOZ041-047>049-056>058-063>065-088>090-097-031000-
...EASTERN AND SOUTHERN MISSOURI...

CITY           SKY/WX    TMP DP  RH WIND       PRES   REMARKS
ST. LOUIS INTL CLOUDY    34  23  64 SE7       30.04F WCI  28
SPIRIT OF STL  CLOUDY    33  23  66 CALM      30.02F
COLUMBIA       CLOUDY    33  23  66 SE7       29.95F WCI  27
JEFFERSON CITY CLOUDY    36  25  64 SE8       29.98F WCI  30
MEXICO         CLOUDY    32  28  86 SE8       29.97F WCI  25
ROLLA          CLOUDY    34  27  75 S16       29.94F WCI  24
LEBANON        CLOUDY    32  28  86 S14       29.94F WCI  22
OSAGE BEACH    CLOUDY    36  27  69 S8        29.95F WCI  29
SPRINGFIELD    CLOUDY    33  27  78 SE20      29.94F WCI  21
BRANSON        CLOUDY    34  30  86 SE7       29.98F WCI  28
NEVADA         CLOUDY    34  32  93 S12       29.93F WCI  25
JOPLIN         CLOUDY    37  33  85 S15       29.92F WCI  28
WEST PLAINS    CLOUDY    31  27  85 S8        30.03F WCI  23

$$

IAZ060-094-KSZ022-034>040-054-083-096-NEZ052-066-093-031000-
...KANSAS...SOUTHEAST NEBRASKA AND IOWA...

CITY           SKY/WX    TMP DP  RH WIND       PRES   REMARKS
TOPEKA         CLOUDY    35  33  92 S10       29.83F FOG     WCI  27
MANHATTAN      CLOUDY    36  34  92 S13       29.77F WCI  27
EMPORIA        CLOUDY    33  33 100 S18G28    29.80F FOG     WCI  22
CHANUTE        CLOUDY    35  35 100 S16       29.91F FOG     WCI  25
WICHITA        FOG       34  32  92 S21       29.81F VSB 3/4 WCI  22
OMAHA          CLOUDY    32  24  72 S14       29.77F WCI  22
LINCOLN        CLOUDY    32  27  81 S13       29.73F WCI  22
FALLS CITY     CLOUDY    33  29  85 S14       29.79F WCI  23
LAMONI         MIX PCPN  30  25  81 S15G23    29.83F WCI  19
DES MOINES     CLOUDY    30  21  69 SE14      29.83F WCI  19

$$




USA.gov is the U.S. government's official web portal to all federal, state and local government web resources and services.